When you browse on this site, cookies collect data to enhance your experience and personalize the content and advertising you see.
Visit our Privacy Policy to learn more. By continuing to use the site, you agree to this use of cookies and data.
  • In Romania
  • List of Countries
  • For 7 days
  • Water Temperature
  • Satellite Maps
  • Weather Map
  • Weather Widgets
  • user-avatar
    Login

    Hourly Weather Albany

    Today, 20 May, Monday

    Time Temperature Precipitation Wind Pressure Humidity
    00:00 +22°C° 0.6 mm 4 mps 755 mmHg 90%
    01:00 +22°C° 0 mm 3 mps 755 mmHg 88%
    02:00 +21°C° 0.8 mm 3 mps 754 mmHg 90%
    03:00 +21°C° 0.8 mm 3 mps 754 mmHg 92%
    04:00 +21°C° 0.8 mm 2 mps 754 mmHg 95%
    05:00 +21°C° 0.5 mm 2 mps 754 mmHg 92%
    06:00 +22°C° 0.5 mm 3 mps 754 mmHg 90%
    07:00 +22°C° 0 mm 3 mps 754 mmHg 85%
    08:00 +25°C° 0.1 mm 4 mps 753 mmHg 76%
    09:00 +27°C° 0.1 mm 4 mps 753 mmHg 67%
    10:00 +28°C° 0.1 mm 5 mps 753 mmHg 59%
    11:00 +29°C° 0.3 mm 5 mps 753 mmHg 57%
    12:00 +29°C° 0.3 mm 5 mps 752 mmHg 54%
    13:00 +30°C° 0.3 mm 6 mps 752 mmHg 52%
    14:00 +28°C° 0.2 mm 6 mps 752 mmHg 56%
    15:00 +27°C° 0.2 mm 6 mps 752 mmHg 61%
    16:00 +26°C° 0.2 mm 5 mps 752 mmHg 65%
    17:00 +23°C° 0 mm 5 mps 753 mmHg 67%
    18:00 +21°C° 0 mm 5 mps 753 mmHg 70%
    19:00 +19°C° 0 mm 4 mps 753 mmHg 72%
    20:00 +17°C° 0 mm 4 mps 754 mmHg 74%
    21:00 +15°C° 0 mm 4 mps 754 mmHg 75%
    22:00 +14°C° 0 mm 4 mps 755 mmHg 76%
    23:00 +13°C° 0 mm 4 mps 755 mmHg 75%

    Tomorrow, 21 May, Tuesday

    Time Temperature Precipitation Wind Pressure Humidity
    00:00 +13°C° 0 mm 4 mps 755 mmHg 74%
    01:00 +12°C° 0 mm 4 mps 755 mmHg 73%
    02:00 +11°C° 0 mm 4 mps 755 mmHg 73%
    03:00 +10°C° 0 mm 5 mps 755 mmHg 72%
    04:00 +9°C° 0 mm 5 mps 755 mmHg 71%
    05:00 +10°C° 0 mm 5 mps 756 mmHg 69%
    06:00 +10°C° 0 mm 5 mps 756 mmHg 67%
    07:00 +10°C° 0 mm 6 mps 756 mmHg 65%
    08:00 +13°C° 0 mm 6 mps 756 mmHg 60%
    09:00 +14°C° 0 mm 6 mps 757 mmHg 54%
    10:00 +15°C° 0 mm 6 mps 757 mmHg 49%
    11:00 +16°C° 0 mm 6 mps 757 mmHg 46%
    12:00 +19°C° 0 mm 6 mps 757 mmHg 43%
    13:00 +20°C° 0 mm 6 mps 757 mmHg 40%
    14:00 +20°C° 0 mm 6 mps 757 mmHg 41%
    15:00 +20°C° 0 mm 6 mps 757 mmHg 41%
    16:00 +20°C° 0 mm 6 mps 758 mmHg 42%
    17:00 +17°C° 0 mm 5 mps 758 mmHg 47%
    18:00 +16°C° 0 mm 5 mps 759 mmHg 53%
    19:00 +14°C° 0 mm 4 mps 760 mmHg 58%
    20:00 +14°C° 0 mm 3 mps 760 mmHg 60%
    21:00 +13°C° 0 mm 3 mps 760 mmHg 61%
    22:00 +12°C° 0 mm 3 mps 761 mmHg 63%
    23:00 +12°C° 0 mm 3 mps 761 mmHg 65%

    Day after tomorrow, 22 May, Wednesday

    Time Temperature Precipitation Wind Pressure Humidity
    00:00 +11°C° 0 mm 3 mps 761 mmHg 66%
    01:00 +11°C° 0 mm 3 mps 761 mmHg 68%
    02:00 +10°C° 0 mm 2 mps 762 mmHg 70%
    03:00 +9°C° 0 mm 2 mps 762 mmHg 73%
    04:00 +9°C° 0 mm 2 mps 763 mmHg 75%
    05:00 +10°C° 0 mm 2 mps 764 mmHg 71%
    06:00 +12°C° 0 mm 2 mps 764 mmHg 67%
    07:00 +13°C° 0 mm 3 mps 764 mmHg 63%
    08:00 +14°C° 0 mm 3 mps 764 mmHg 56%
    09:00 +17°C° 0 mm 3 mps 764 mmHg 49%
    10:00 +19°C° 0 mm 3 mps 764 mmHg 43%
    11:00 +20°C° 0 mm 3 mps 764 mmHg 40%
    12:00 +21°C° 0 mm 3 mps 764 mmHg 38%
    13:00 +22°C° 0 mm 3 mps 764 mmHg 35%
    14:00 +24°C° 0 mm 2 mps 764 mmHg 36%
    15:00 +24°C° 0 mm 2 mps 764 mmHg 37%
    16:00 +24°C° 0 mm 2 mps 764 mmHg 38%
    17:00 +21°C° 0 mm 2 mps 764 mmHg 45%
    18:00 +19°C° 0 mm 2 mps 764 mmHg 51%
    19:00 +17°C° 0 mm 2 mps 765 mmHg 57%
    20:00 +16°C° 0 mm 1 mps 765 mmHg 57%
    21:00 +15°C° 0 mm 1 mps 765 mmHg 58%
    22:00 +13°C° 0 mm 0 mps 766 mmHg 58%
    23:00 +13°C° 0.3 mm 0 mps 766 mmHg 66%

    23 May, Thursday

    Time Temperature Precipitation Wind Pressure Humidity
    00:00 +12°C° 0.3 mm 0 mps 766 mmHg 75%
    01:00 +12°C° 0.3 mm 0 mps 766 mmHg 83%
    02:00 +13°C° 0 mm 1 mps 766 mmHg 84%
    03:00 +13°C° 0 mm 1 mps 765 mmHg 84%
    04:00 +13°C° 0 mm 1 mps 765 mmHg 85%
    05:00 +13°C° 0 mm 1 mps 765 mmHg 84%
    06:00 +14°C° 0 mm 1 mps 765 mmHg 83%
    07:00 +14°C° 0 mm 2 mps 765 mmHg 82%
    08:00 +15°C° 0 mm 2 mps 764 mmHg 79%
    09:00 +16°C° 0 mm 2 mps 764 mmHg 75%
    10:00 +17°C° 0 mm 3 mps 763 mmHg 72%
    11:00 +18°C° 0 mm 3 mps 763 mmHg 70%
    12:00 +20°C° 0 mm 3 mps 762 mmHg 68%
    13:00 +21°C° 0 mm 4 mps 761 mmHg 66%
    14:00 +20°C° 0.5 mm 4 mps 761 mmHg 74%
    15:00 +19°C° 0.5 mm 4 mps 760 mmHg 81%
    16:00 +18°C° 0.5 mm 4 mps 759 mmHg 88%
    17:00 +18°C° 0.2 mm 4 mps 758 mmHg 89%
    18:00 +17°C° 0.2 mm 3 mps 758 mmHg 89%
    19:00 +17°C° 0.2 mm 3 mps 757 mmHg 89%
    20:00 +17°C° 0.9 mm 3 mps 756 mmHg 91%
    21:00 +17°C° 0.9 mm 3 mps 755 mmHg 93%
    22:00 +16°C° 0.9 mm 3 mps 755 mmHg 95%
    23:00 +16°C° 1 mm 2 mps 754 mmHg 95%

    24 May, Friday

    Time Temperature Precipitation Wind Pressure Humidity
    00:00 +16°C° 1 mm 2 mps 754 mmHg 96%
    01:00 +16°C° 1 mm 2 mps 753 mmHg 96%
    02:00 +16°C° 0 mm 3 mps 753 mmHg 95%
    03:00 +16°C° 0 mm 3 mps 753 mmHg 95%
    04:00 +15°C° 0 mm 4 mps 754 mmHg 95%
    05:00 +15°C° 0 mm 4 mps 754 mmHg 94%
    06:00 +15°C° 0 mm 4 mps 755 mmHg 93%
    07:00 +17°C° 0 mm 3 mps 756 mmHg 92%
    08:00 +18°C° 0.1 mm 4 mps 757 mmHg 87%
    09:00 +19°C° 0.1 mm 4 mps 758 mmHg 82%
    10:00 +20°C° 0.1 mm 4 mps 758 mmHg 77%
    11:00 +19°C° 0.2 mm 4 mps 759 mmHg 80%
    12:00 +18°C° 0.2 mm 3 mps 760 mmHg 83%
    13:00 +17°C° 0.2 mm 3 mps 760 mmHg 86%
    14:00 +17°C° 0 mm 2 mps 761 mmHg 84%
    15:00 +18°C° 0 mm 1 mps 761 mmHg 82%
    16:00 +18°C° 0 mm 1 mps 762 mmHg 81%
    17:00 +18°C° 0 mm 1 mps 762 mmHg 81%
    18:00 +16°C° 0 mm 1 mps 762 mmHg 82%
    19:00 +16°C° 0 mm 1 mps 763 mmHg 83%
    20:00 +15°C° 0 mm 1 mps 763 mmHg 85%
    21:00 +13°C° 0 mm 2 mps 764 mmHg 87%
    22:00 +12°C° 0 mm 2 mps 764 mmHg 90%
    23:00 +10°C° 0 mm 2 mps 764 mmHg 89%

    25 May, Saturday

    Time Temperature Precipitation Wind Pressure Humidity
    00:00 +10°C° 0 mm 2 mps 764 mmHg 89%
    01:00 +9°C° 0 mm 2 mps 763 mmHg 88%
    02:00 +9°C° 0 mm 2 mps 764 mmHg 88%
    03:00 +9°C° 0 mm 2 mps 764 mmHg 87%
    04:00 +9°C° 0 mm 2 mps 764 mmHg 86%
    05:00 +10°C° 0 mm 2 mps 764 mmHg 80%
    06:00 +12°C° 0 mm 3 mps 764 mmHg 73%
    07:00 +13°C° 0 mm 4 mps 763 mmHg 66%
    08:00 +14°C° 0 mm 4 mps 763 mmHg 62%
    09:00 +17°C° 0 mm 4 mps 762 mmHg 58%
    10:00 +17°C° 0 mm 5 mps 762 mmHg 54%
    11:00 +20°C° 0 mm 5 mps 761 mmHg 54%
    12:00 +21°C° 0 mm 5 mps 760 mmHg 53%
    13:00 +23°C° 0 mm 5 mps 759 mmHg 52%
    14:00 +23°C° 0 mm 5 mps 759 mmHg 54%
    15:00 +23°C° 0 mm 5 mps 758 mmHg 56%
    16:00 +23°C° 0 mm 5 mps 758 mmHg 58%
    17:00 +21°C° 0.2 mm 5 mps 758 mmHg 64%
    18:00 +20°C° 0.2 mm 5 mps 758 mmHg 69%
    19:00 +18°C° 0.2 mm 4 mps 758 mmHg 75%
    20:00 +18°C° 0.2 mm 4 mps 758 mmHg 78%
    21:00 +17°C° 0.2 mm 4 mps 758 mmHg 80%
    22:00 +15°C° 0.2 mm 4 mps 758 mmHg 83%
    23:00 +16°C° 0 mm 3 mps 757 mmHg 85%
    Show more